Location: Martley
(52.2333°N, 2.3667°W)
Time: 10:28:01
(UTC+00:00)

Meteor 1-4 Rocket - Pass Details

Date: 11 December 2019
Orbit: 449 x 504 km, 81.2° (Epoch: 23 January)

Event Time Altitude Azimuth Distance (km) Brightness Sun altitude
Rises 07:06:27 0° 354° (N) 2,616 6.0 -8.8°
Reaches altitude 10° 07:08:48 10° 5° (N) 1,721 5.1 -8.5°
Maximum altitude 07:12:09 30° 68° (ENE) 923 4.5 -8.0°
Drops below altitude 10° 07:15:28 10° 131° (SE) 1,688 6.9 -7.6°
Sets 07:17:44 0° 143° (SE) 2,555 7.6 -7.3°
